Find Starlink 32507

NORAD ID: 62132 Int'l Des: 2024-222 Owner: SPXS Country: US Constellation: starlink operational
LEOCIRCULAR

現在のビュー

3D地球を読み込み中...

About Starlink 32507

Starlink 32507 (NORAD 62132) is a starlink constellation satellite (v2 mini) launched Nov 27, 2024 by SPXS of US. It operates in LEO, CIRCULAR orbit with a mass of 730.00 kg.

次回通過

Passes for default location (London). Set your location on the main map for personalized predictions.

高度履歴

Loading altitude history...

軌道要素

1 62132U 24222U 26263.80184717 .00019331 00000-0 70981-3 0 9996
2 62132 43.0001 113.8762 0001228 272.7581 87.3130 15.27595681102449
Epoch: Sep 20, 2026 • Age: 9 hours

現在のステータス

高度 491.6 km
遠地点 / 近地点 N/A
速度 7.62 km/s
衛星直下点 -33.23°S, 85.53°W
打ち上げ日 Nov 27, 2024
運用期間 1.8 years
タイプ internet

技術仕様

分類 Payload
質量 730.00 kg
乾燥質量 700.00 kg
長さ 0.30 m
スパン 29.00 m
形状 ? Box + pan
製造者 SPXS
バスタイプ Starlink V2M
フェーズステータス In Orbit
所有者/国 SPXS/US

Most Searched